This is the latest recevied weather packets stored in our database for station/object K5KHP. If no packets are shown the sender has not sent any weather packets the latest 10 day(s).
| Time | Temp. | Humidity | Pressure | Rain* | Wind** | Luminosity | Snow |
|---|---|---|---|---|---|---|---|
| 1777821605 | 15° C | 81% | 1013.5 hPa | 0 mm | - | 47 W/m² | - |
| 1777821304 | 15° C | 82% | 1013.4 hPa | 0 mm | - | 46 W/m² | - |
| 1777821000 | 15° C | 82% | 1013.4 hPa | 0 mm | - | 44 W/m² | - |
| 1777820696 | 15° C | 83% | 1013.3 hPa | 0 mm | - | 43 W/m² | - |
| 1777820392 | 15° C | 84% | 1013.2 hPa | 0 mm | - | 42 W/m² | - |
| 1777820090 | 15° C | 84% | 1013.3 hPa | 0 mm | - | 37 W/m² | - |
| 1777819787 | 15° C | 85% | 1013.1 hPa | 0 mm | - | 32 W/m² | - |
| 1777819485 | 15° C | 85% | 1013.3 hPa | 0 mm | - | 29 W/m² | - |
| 1777819183 | 15° C | 86% | 1013.1 hPa | 0 mm | - | 26 W/m² | - |
| 1777818879 | 14.44° C | 86% | 1013.2 hPa | 0 mm | - | 25 W/m² | - |
| 1777818575 | 14.44° C | 86% | 1013.1 hPa | 0 mm | - | 26 W/m² | - |
| 1777818273 | 14.44° C | 86% | 1013 hPa | 0 mm | - | 21 W/m² | - |
| 1777817963 | 14.44° C | 87% | 1012.7 hPa | 0 mm | - | 16 W/m² | - |
| 1777817661 | 14.44° C | 86% | 1012.9 hPa | 0 mm | - | 15 W/m² | - |
| 1777817357 | 14.44° C | 87% | 1012.7 hPa | 0 mm | - | 13 W/m² | - |
| 1777817054 | 14.44° C | 87% | 1012.5 hPa | 0 mm | - | 12 W/m² | - |
| 1777816744 | 14.44° C | 87% | 1012.5 hPa | 0 mm | - | 11 W/m² | - |
| 1777816443 | 14.44° C | 87% | 1012.4 hPa | 0 mm | - | 10 W/m² | - |
| 1777816140 | 14.44° C | 87% | 1012.4 hPa | 0 mm | - | 8 W/m² | - |
| 1777815838 | 14.44° C | 87% | 1012.3 hPa | 0 mm | - | 7 W/m² | - |
| 1777815535 | 14.44° C | 87% | 1012.1 hPa | 0 mm | - | 5 W/m² | - |
| 1777815232 | 14.44° C | 87% | 1012.2 hPa | 0 mm | - | 4 W/m² | - |
| 1777814928 | 14.44° C | 87% | 1012.2 hPa | 0 mm | - | 4 W/m² | - |
| 1777814625 | 14.44° C | 87% | 1012.2 hPa | 0 mm | - | 2 W/m² | - |
| 1777814322 | 14.44° C | 88% | 1012 hPa | 0 mm | - | 1 W/m² | - |
* Rain latest hour (hover to see other rain measurements)
** Current wind speed in m/s (hover to see current wind gust speed)